NameVerkehrslandeplatz Ganderkesee
ICAO-CODEEDWQ
Koordinaten53.02.15 N / 08.30.22 E
Richtung26 (262°) / 08 (082°)
Höhe über Grund96 ft
Abmessung835 m x 22 m
BelagLandebahn: ASPH
Rollwege: ASPH
FrequenzenGanderkesee Info / 118.630 MHz (spätestens 5 min. vor Erreichen des Platzes)
Bremen Information: 119.825 MHz
Bremen Approach: 124.800 MHz
Im Flugplatzverkehr ist ständige Hörbereitschaft aufrechtzuerhalten.
Auf Segelflüge / Ultralights / Fallschirmspringen achten – insbesondere am Samstag / Sonntag / Feiertag.
TowerTel +49 4222 8054610
METAR
(EDDW)
EDDW 202150Z AUTO 04006KT 9999 FEW040 00/M02 Q1024 (ohne Gewähr)
TAF
(EDDW)
TAF EDDW 201700Z 2018/2118 VRB03KT CAVOK PROB30 TEMPO 2019/2022 0900 FZFG BECMG 2022/2024 2000 BCFG TEMPO 2023/2109 0500 FZFG VV002 BECMG 2108/2110 02005KT 7000 (ohne Gewähr)
NOTAMs
Betriebszeiten09:00 – 17:18 Uhr (automatisch berechnete Zeit – ohne Gewähr)
Sommer:
UTC+2 09:00 Uhr bis Sonnenuntergang + 30 Min. (max. 20:00 Uhr)
Winter:
UTC+1 09:00 Uhr bis Sonnenuntergang + 30 Min. (max. 20:00 Uhr)
Andere Zeiten PPR.
13:00 bis 15:00 Uhr Ab- und Anflüge nur für / von Überlandflügen.
Flugbetriebsstoffesiehe Preise / Gebühren
Platzrundesiehe Sichtflug
Hangarssiehe Hangars
BetriebsartenSichtflug (VFR)
Sichtflug bei Nacht (NVFR)
GAFOR05
LuftfahrzeugartenFlugzeuge bis 5.700 kg MPW
Motorsegler
Segelflug (Schleppstart)
Ultraleicht-Flugzeuge
Freiballone PPR
Flugzeuge ab 5.700 kg PPR
Fallschirmspringer PPR